Theta_e
349 353 352 352 351 350 350 352 355 355 356 356 354 350 350 354 356 356 358 359 356 353 351 350 352 351 351 353 352 353 353 355 355 351 351 352 351 348 351 351 348 347 346 347 346 345 344 343 342 343 344 344 344 342 338 334 333 334 331 326 326 328 329 330 334 338 340 341 341 341 341 342 343 343 343 343 343 344 344 344 345 345 345 344 343 343 344 344 344 344 344 344 345 344 344 344 344
350 354 354 354 352 352 352 353 358 354 353 353 352 352 353 354 356 357 357 357 357 350 351 351 351 350 350 352 351 352 352 354 356 356 354 352 350 350 350 349 347 346 347 347 346 345 345 342 342 344 344 344 343 341 338 336 334 333 329 326 327 328 329 332 337 340 340 341 341 340 341 342 342 343 343 343 344 344 344 344 345 345 345 344 344 344 344 344 344 343 343 344 345 344 344 344 343
354 356 355 354 354 354 354 355 357 349 347 349 350 356 355 355 355 355 357 356 354 349 352 352 351 352 350 350 350 352 352 353 354 355 354 353 352 351 351 351 350 346 347 350 348 346 344 341 341 342 343 343 341 340 339 337 335 332 329 328 328 328 330 333 338 340 341 340 340 340 340 341 342 342 343 343 344 345 344 344 344 345 345 344 344 344 344 344 344 344 343 344 345 344 344 343 343
356 356 356 355 354 355 355 357 358 351 346 344 347 356 355 355 354 351 356 354 352 351 353 353 352 354 351 350 350 353 354 353 353 354 355 354 353 352 352 352 352 350 349 350 349 347 344 340 340 340 343 343 340 339 339 339 336 331 329 329 328 328 330 334 338 340 340 340 340 339 339 340 341 342 343 343 344 345 344 344 344 344 344 344 345 344 344 344 344 344 344 344 345 344 344 344 343
356 356 357 355 355 355 355 357 358 354 348 343 343 355 355 353 352 352 355 354 352 352 353 354 352 353 352 352 351 352 353 354 353 354 354 354 353 353 353 353 352 352 350 350 349 348 344 340 339 340 343 342 339 338 339 340 335 328 328 329 327 327 330 335 339 341 341 340 340 340 339 339 340 342 342 343 344 345 344 345 344 344 344 344 344 344 344 344 345 345 344 344 344 344 344 344 344
356 357 357 356 357 356 355 353 353 351 352 350 345 350 352 350 352 354 354 355 353 352 353 353 352 352 352 353 353 352 352 353 353 354 354 354 353 353 353 352 353 352 351 351 351 349 344 340 340 340 342 341 339 339 341 340 332 327 328 328 327 328 331 336 340 341 341 340 340 340 339 339 340 341 342 343 344 345 345 345 344 344 345 344 343 342 342 343 344 345 345 345 344 344 343 343 344
355 356 357 357 357 357 357 352 348 344 348 352 349 349 349 350 353 354 354 355 353 352 352 352 352 351 351 352 352 353 352 352 354 354 353 354 353 353 353 352 353 352 351 352 351 349 344 340 340 341 341 340 340 340 342 339 329 327 328 327 326 328 332 337 340 341 341 341 341 340 339 339 339 341 341 342 343 344 345 344 344 344 344 343 341 340 341 341 341 342 344 345 345 344 343 343 343
354 356 358 358 358 357 356 350 345 343 347 349 348 349 349 351 355 354 353 354 353 353 352 352 352 351 351 351 351 353 353 353 354 354 353 354 354 353 353 352 353 351 351 352 350 347 343 341 342 342 341 341 341 340 341 338 329 327 327 325 326 329 333 338 340 341 342 342 341 340 339 339 339 340 341 342 343 343 344 344 344 344 342 342 341 340 341 342 342 342 343 344 345 344 343 343 342
354 355 357 358 358 354 352 346 343 347 349 348 347 350 351 353 354 352 350 352 354 354 353 352 352 353 352 352 353 353 353 354 353 352 354 354 354 353 353 353 353 352 350 351 349 345 343 343 342 342 343 341 341 341 341 338 330 326 327 326 326 330 334 337 339 341 342 342 341 340 339 338 338 339 341 341 342 342 343 343 343 342 342 341 340 340 341 342 343 342 343 343 344 344 343 342 341
355 355 356 356 355 349 342 339 342 348 348 348 349 352 353 353 354 353 350 351 354 354 353 352 352 353 353 354 354 354 353 354 352 352 353 353 353 353 352 352 353 353 352 351 350 346 344 343 343 343 343 342 342 341 341 339 331 326 327 326 327 331 334 336 339 341 342 343 342 340 339 338 338 339 340 340 341 342 342 342 342 343 342 342 341 341 341 342 342 342 342 342 342 343 342 342 341
355 356 357 357 355 344 334 335 342 346 347 348 348 352 353 353 353 353 351 351 353 354 353 352 352 353 355 356 354 354 353 353 352 352 353 352 353 352 352 352 354 354 353 352 349 347 345 344 344 343 343 342 342 341 341 340 331 326 327 327 328 332 334 336 339 341 342 342 342 341 339 338 337 338 338 339 341 341 342 342 342 343 343 343 343 341 341 341 341 342 341 341 341 342 342 341 341
354 355 357 358 356 346 334 337 342 346 348 347 348 351 351 352 352 350 351 351 353 353 353 354 352 351 354 355 354 354 354 353 352 352 352 352 352 352 351 351 353 354 353 351 347 345 345 344 345 343 343 343 344 343 342 340 332 327 328 327 328 331 334 336 338 340 342 342 341 340 339 337 337 338 338 339 340 341 342 342 343 343 344 343 342 341 341 341 340 340 340 340 341 342 343 341 341
354 356 356 354 354 347 338 338 340 346 347 347 348 350 352 352 352 350 351 351 352 352 351 354 352 351 353 354 354 353 354 353 352 352 351 352 352 351 352 352 353 353 353 351 348 345 345 346 346 345 344 344 344 344 343 341 333 328 329 327 329 332 333 335 337 339 341 342 341 339 338 337 335 336 338 338 339 340 341 342 343 344 344 343 343 341 341 341 340 339 338 339 341 342 342 342 341
354 357 355 353 354 346 340 339 340 343 342 346 348 350 352 352 352 351 351 350 352 352 352 353 352 353 353 353 354 353 354 353 352 352 351 352 352 352 352 351 352 353 353 352 348 346 348 347 346 346 345 345 344 344 344 340 333 331 330 327 329 332 333 334 336 337 340 342 341 338 336 335 334 335 336 338 338 339 340 341 342 343 344 343 343 342 341 341 341 339 338 338 341 342 342 343 342
354 356 354 354 355 347 342 340 341 341 340 345 346 349 350 350 352 351 352 351 351 351 351 352 352 353 352 352 353 352 353 352 353 353 352 352 352 352 351 352 353 353 353 353 349 347 348 347 346 345 344 346 346 345 345 339 333 331 329 329 331 332 332 333 334 336 339 342 342 339 335 333 334 335 336 337 337 337 339 341 341 342 342 341 341 341 341 340 341 340 339 339 341 342 342 343 343
353 355 354 352 350 344 342 341 345 342 342 345 345 348 346 348 350 350 352 350 349 350 350 352 353 352 350 351 352 351 352 352 353 353 353 353 352 352 352 352 353 354 354 353 351 348 348 348 347 346 345 347 346 345 344 337 333 331 329 331 333 333 333 333 334 335 338 340 342 340 335 333 336 336 337 338 337 336 337 339 341 341 341 339 339 340 340 340 341 341 340 340 341 342 343 343 344
351 353 353 348 347 343 343 342 345 343 343 344 346 348 345 346 349 347 349 350 349 350 351 350 351 351 350 352 350 351 351 352 353 353 354 353 353 353 352 353 353 355 355 353 352 350 349 348 347 346 346 346 345 343 341 336 332 331 331 333 335 334 333 333 333 334 338 340 341 340 337 338 341 340 341 342 342 340 336 335 339 341 341 341 341 340 341 341 341 341 340 340 341 342 344 345 345
350 351 349 347 350 349 348 344 345 345 345 344 347 349 346 345 348 348 348 350 349 350 352 350 351 353 352 352 350 351 351 351 353 354 354 354 354 353 353 353 352 353 353 353 353 351 350 349 346 343 342 343 343 341 339 337 333 332 334 335 335 334 333 333 333 335 338 341 342 340 340 344 347 344 344 345 345 345 339 334 337 340 342 343 342 342 342 342 341 341 340 341 343 346 346 346 347
348 348 349 349 352 351 348 345 346 346 345 345 346 348 347 346 349 349 348 349 348 349 351 350 352 354 353 352 351 351 351 351 352 354 355 354 354 354 353 353 352 352 352 353 352 349 349 349 345 341 339 341 343 342 339 338 335 334 336 336 336 335 334 334 335 338 340 342 344 342 344 348 348 346 345 345 344 344 340 336 338 340 342 343 342 342 342 343 343 341 342 343 345 348 348 348 348
347 347 349 351 351 350 347 347 347 346 344 345 346 346 348 348 348 348 348 348 347 349 349 351 353 353 352 352 352 352 351 351 351 353 355 354 354 353 353 353 353 353 352 351 351 350 349 349 348 344 340 339 343 344 342 341 337 335 338 337 337 337 336 336 337 340 341 343 345 344 348 349 346 346 344 342 342 342 341 340 342 341 341 343 343 345 345 345 346 344 346 347 347 348 348 349 349
346 346 346 351 352 349 345 348 347 347 344 344 345 345 347 348 349 347 349 348 346 349 349 350 353 352 352 351 351 352 351 351 351 352 353 354 354 353 353 353 353 353 352 351 352 354 352 351 351 349 343 342 344 345 346 344 339 338 342 342 341 341 340 340 341 343 342 343 344 345 351 349 346 349 344 341 346 348 348 345 346 346 344 345 346 349 349 348 349 348 348 349 349 349 349 350 350
345 347 346 349 352 347 347 349 346 346 345 346 345 345 347 348 349 349 349 348 346 348 348 349 352 352 352 350 350 352 351 351 351 351 352 352 353 352 352 353 352 353 353 352 352 354 353 351 352 352 348 347 347 348 349 347 343 343 347 347 346 347 346 346 348 349 347 344 344 348 352 349 348 352 348 346 350 351 350 348 349 348 347 349 349 350 350 348 350 350 350 350 349 350 351 351 350
343 345 346 346 348 347 350 350 347 346 346 347 344 345 346 345 346 347 349 348 345 346 347 349 352 352 351 351 351 351 352 351 351 351 351 351 352 352 352 351 352 353 352 353 352 352 352 350 352 353 349 345 347 349 350 347 345 347 350 349 350 351 351 351 352 352 352 346 345 350 352 350 349 351 350 349 350 351 351 351 351 350 349 351 351 351 349 349 350 349 350 351 350 350 351 352 351
343 343 343 345 346 347 350 351 349 348 347 347 345 343 344 343 344 345 347 348 347 347 347 349 352 353 352 352 352 351 352 351 350 350 350 351 352 352 352 351 351 353 353 353 353 352 352 351 351 351 347 345 347 349 349 347 345 350 352 350 351 352 352 353 352 354 354 347 345 349 350 351 350 350 351 349 349 351 351 351 352 351 351 351 351 351 351 351 351 349 350 351 351 351 351 351 351
343 341 342 344 346 347 347 349 349 348 347 346 345 343 343 343 343 344 346 347 347 348 348 349 352 353 353 353 352 352 352 352 349 348 348 350 351 351 352 351 351 352 353 353 353 353 353 352 351 348 346 347 348 347 350 350 348 351 353 351 351 352 351 353 353 354 354 350 346 343 345 351 351 350 352 350 350 351 352 352 352 352 351 350 350 352 352 353 352 351 351 352 352 351 351 351 350
343 343 342 341 343 346 346 348 348 347 347 345 344 342 342 343 342 342 344 345 347 348 349 350 353 352 353 353 352 353 352 352 351 348 349 350 351 351 351 351 351 352 352 354 353 353 353 353 352 351 349 348 348 349 351 352 351 352 353 352 353 352 351 353 353 353 353 352 349 341 339 349 352 351 351 351 351 352 352 352 352 352 352 351 352 352 352 351 352 353 351 351 352 351 351 351 351
344 344 344 341 341 344 345 347 346 346 345 345 343 340 343 342 341 341 343 345 346 349 350 351 353 352 352 353 352 353 352 351 351 351 350 351 351 350 351 351 350 351 351 353 353 353 353 353 353 353 351 349 349 350 351 352 352 352 352 352 352 351 351 353 353 353 353 352 352 344 336 342 349 353 353 352 352 351 351 353 352 352 353 353 352 353 352 351 352 352 348 347 350 350 351 351 350
344 343 343 342 342 342 343 345 345 345 343 343 342 340 342 341 339 341 341 344 346 349 352 353 354 353 353 353 353 353 353 352 352 352 351 351 351 351 352 351 350 351 350 351 353 353 353 353 353 353 352 350 349 351 351 351 351 352 352 351 352 352 351 352 352 353 352 352 352 346 338 337 344 352 353 351 351 351 352 353 353 352 353 353 353 352 351 351 352 351 347 345 349 350 352 352 349
342 341 340 339 340 339 339 342 343 344 342 341 341 337 339 339 339 340 342 344 346 347 351 353 353 353 353 353 353 354 354 353 352 352 352 352 352 351 351 351 350 350 350 350 351 352 353 354 353 353 353 349 349 352 352 351 351 351 351 351 352 351 350 351 351 352 352 353 350 343 339 338 340 347 349 347 347 350 351 352 354 353 354 354 353 350 347 350 352 351 349 349 350 351 352 351 348
340 339 338 337 336 335 338 340 340 342 340 341 339 332 333 338 339 340 341 344 346 347 349 351 352 353 353 353 354 355 355 354 354 352 352 352 351 351 350 349 350 350 350 350 350 351 352 353 354 354 353 350 348 351 352 351 351 351 350 351 352 350 349 349 351 352 351 352 348 339 339 340 340 344 346 343 343 348 351 351 352 354 355 353 352 350 348 352 353 351 351 350 349 350 352 350 347
338 336 336 335 330 331 337 339 338 340 339 341 339 329 332 338 339 340 341 344 347 347 350 350 351 354 353 353 354 356 355 354 354 353 352 352 351 350 351 350 350 350 350 350 350 350 350 352 353 354 354 351 347 350 353 352 351 351 350 351 351 349 349 350 350 351 351 350 346 341 340 339 339 343 344 343 340 345 351 353 353 355 355 352 353 352 349 352 353 350 350 349 348 350 351 348 346
336 331 329 332 328 330 338 338 338 340 338 341 337 330 334 337 339 341 341 344 346 347 350 349 350 354 353 353 355 355 356 355 354 354 353 352 351 351 351 351 350 350 350 351 350 350 350 351 353 353 353 352 348 349 351 351 351 351 350 351 351 348 349 351 351 351 351 349 347 344 340 336 337 340 343 343 340 343 350 353 355 354 350 351 353 350 349 353 353 350 348 347 347 348 348 346 346
334 331 325 328 328 329 335 336 338 339 338 339 337 333 335 337 339 341 342 344 346 347 350 350 350 354 354 353 354 354 355 356 354 354 353 352 352 352 352 352 351 351 351 352 352 351 351 351 352 352 352 352 350 349 350 350 349 349 349 350 350 347 348 351 352 351 351 350 349 349 343 335 335 338 342 343 341 343 350 353 355 353 349 349 349 347 351 355 353 350 348 347 345 345 347 346 344
328 330 327 328 331 329 331 335 337 338 337 337 337 336 337 337 339 341 343 344 344 345 348 350 351 353 354 352 353 354 356 357 355 354 354 353 353 353 352 352 352 352 352 353 353 353 352 352 351 351 352 352 352 352 351 352 350 348 349 350 350 348 348 351 351 351 351 350 350 349 345 338 337 340 342 343 341 343 349 351 354 355 351 349 346 347 352 354 353 350 349 348 345 345 347 346 343
324 326 326 326 330 330 330 333 336 336 337 337 336 336 337 337 338 341 344 343 341 343 346 350 351 352 354 352 353 355 355 356 356 355 354 354 354 354 353 354 354 353 354 354 354 354 353 353 352 352 352 351 352 353 353 353 352 350 351 350 350 350 350 350 350 350 350 350 351 349 344 340 341 342 343 343 341 342 345 349 352 352 352 351 348 350 353 352 350 346 347 348 345 344 346 345 343
328 329 328 326 327 329 333 334 336 336 336 338 337 335 337 337 337 339 342 342 342 342 344 349 351 351 353 352 354 354 353 355 356 355 354 354 355 355 354 355 355 354 354 355 355 355 355 354 353 353 353 352 351 352 352 353 351 350 350 350 350 350 349 350 350 350 350 349 351 350 344 340 342 344 343 342 341 341 343 347 350 348 350 352 350 351 353 351 347 345 348 348 345 345 345 344 343
331 331 330 329 327 328 334 336 336 336 335 335 337 337 336 337 337 337 339 342 342 341 343 347 350 351 352 354 354 353 353 354 356 355 355 355 355 356 356 356 356 355 355 356 356 356 356 355 354 354 354 352 351 351 351 351 351 349 349 350 350 350 349 351 351 351 351 350 351 351 345 339 341 343 342 341 341 342 343 346 349 347 349 354 352 349 350 349 345 346 349 348 347 347 345 344 343
330 330 328 328 327 328 334 337 335 336 334 333 337 336 335 337 336 336 338 340 341 342 343 345 348 350 351 354 354 352 352 353 354 356 355 355 356 356 357 356 356 356 356 357 357 356 356 356 355 354 354 354 352 352 352 351 351 350 350 350 351 351 350 351 351 352 351 350 351 351 346 340 340 341 340 342 342 343 345 347 348 346 347 354 354 348 347 347 346 347 350 350 350 347 345 345 342
328 329 326 324 327 329 332 335 336 335 333 333 336 336 335 337 336 336 337 338 341 341 341 343 347 350 351 353 354 352 352 352 354 357 356 355 356 356 357 358 357 357 357 357 358 357 356 356 356 353 353 354 353 352 351 350 351 351 351 351 352 352 352 351 351 352 351 350 351 349 343 339 340 340 340 342 342 345 347 347 347 347 347 351 352 348 347 347 346 347 349 351 349 346 346 345 338
328 327 323 322 327 327 325 330 335 336 334 334 336 335 335 337 336 337 338 338 338 340 341 341 343 350 351 353 354 353 352 353 354 357 357 356 356 356 358 359 358 358 358 358 359 359 356 356 355 351 348 351 353 351 349 348 350 352 353 352 352 351 351 352 351 352 352 350 351 349 340 337 339 340 341 342 343 345 347 347 348 349 349 349 348 348 348 348 349 348 348 350 349 346 346 345 339
326 327 325 323 327 327 326 330 334 334 333 335 335 330 331 336 337 336 337 337 337 339 342 341 341 347 350 352 353 352 352 354 356 358 358 357 356 356 358 359 359 358 359 359 359 358 355 354 351 346 344 345 348 348 346 347 350 351 353 352 353 353 352 353 353 352 352 351 352 350 341 336 338 340 341 342 343 345 347 347 348 349 350 348 347 348 349 349 351 352 350 349 348 345 343 346 344
322 326 326 326 328 329 329 332 331 326 326 332 333 324 325 334 336 336 336 336 337 338 341 342 341 343 348 350 350 349 351 353 356 358 358 357 357 357 358 359 359 359 359 359 358 356 354 352 346 343 342 341 342 344 342 345 348 349 351 352 352 352 352 354 355 353 353 351 351 351 346 340 339 339 341 341 342 345 346 347 348 349 350 349 347 349 350 349 352 353 351 349 347 344 341 345 346
320 324 327 327 328 327 327 329 326 321 322 332 333 325 322 329 333 337 337 336 337 337 339 342 342 342 346 350 348 350 351 350 353 357 359 358 357 358 359 360 360 359 359 358 358 357 355 350 344 340 340 339 340 342 341 343 345 347 350 348 348 351 351 353 353 353 354 352 351 351 350 346 340 339 342 342 341 343 346 348 348 348 350 349 348 350 351 353 355 353 350 350 349 346 340 341 346
321 325 327 326 326 325 326 326 323 322 325 330 332 329 322 322 330 337 337 336 337 337 339 343 343 343 346 349 349 351 351 349 350 355 358 359 358 358 359 360 360 359 359 359 358 358 354 347 341 339 338 337 338 340 341 340 341 345 347 344 347 351 351 351 351 352 354 354 353 351 352 352 344 339 342 342 340 341 344 346 348 348 348 349 350 350 352 355 356 352 349 348 346 345 338 336 345
324 326 326 326 326 325 325 324 322 324 324 321 325 328 322 320 328 337 338 336 336 339 341 344 345 344 346 348 349 351 351 352 352 354 359 360 358 359 359 361 360 359 359 358 358 357 352 346 342 339 338 337 337 338 339 338 338 341 343 344 346 347 350 352 352 352 351 351 354 352 352 354 349 339 341 343 340 340 341 343 346 347 348 349 350 351 353 355 353 350 349 346 341 343 337 331 341
326 326 325 326 326 326 326 324 321 321 320 318 321 324 321 319 325 332 334 334 335 339 342 343 344 346 346 347 349 351 353 355 356 358 361 360 359 359 359 361 360 358 359 359 358 357 354 349 345 341 338 338 337 336 337 336 336 338 341 343 344 342 344 348 353 355 351 346 349 351 349 352 350 342 341 343 342 340 340 341 343 345 347 349 350 351 353 354 351 349 350 348 343 344 339 330 333
326 326 325 325 326 327 326 324 322 319 317 318 320 322 321 318 323 329 332 333 336 339 340 342 345 347 347 347 349 351 354 356 358 360 361 361 360 360 360 362 361 358 359 360 359 360 356 350 345 341 338 337 337 337 336 336 336 337 339 339 338 337 336 340 349 355 354 347 343 345 345 347 347 344 343 344 343 341 341 341 342 343 345 347 349 350 352 353 353 350 349 349 345 344 342 334 329
325 326 324 322 322 323 322 321 321 317 316 318 320 322 320 316 321 329 334 335 336 337 338 341 344 346 347 347 346 349 354 356 357 359 361 361 361 361 361 362 362 359 359 360 360 360 358 349 342 340 337 336 336 337 337 336 336 336 337 337 335 334 333 335 340 346 352 350 343 340 342 342 343 343 344 345 343 342 342 341 343 344 343 344 347 348 350 352 354 353 350 347 346 345 342 337 329
325 324 321 318 317 318 317 317 318 316 316 319 321 321 318 317 323 330 333 335 335 337 338 340 342 345 347 347 346 347 351 355 356 358 360 362 362 362 362 362 363 361 359 361 360 360 359 350 341 338 337 336 336 336 336 336 337 336 335 336 334 333 333 333 333 337 345 347 342 339 338 339 340 340 342 345 345 346 345 340 341 344 343 341 344 346 348 349 350 351 349 347 346 345 343 337 330
324 322 319 317 316 317 317 316 316 316 316 319 322 321 317 318 325 330 332 333 335 336 337 338 339 341 345 348 347 344 348 351 355 357 359 361 362 362 362 363 364 362 360 361 360 360 359 352 342 338 337 336 336 336 336 335 336 335 335 335 334 332 333 333 333 335 339 340 339 337 336 337 338 337 338 340 345 351 352 345 341 343 343 341 342 344 346 347 345 344 346 346 346 345 343 339 332
325 325 323 319 318 318 317 316 315 316 317 318 320 320 316 317 324 331 332 331 334 335 336 338 338 337 342 347 347 344 344 348 354 357 357 360 362 363 363 364 364 364 362 361 361 361 360 353 343 338 337 338 337 336 336 336 335 336 336 335 334 334 334 334 334 334 336 337 336 336 336 337 339 339 338 336 339 347 352 348 342 342 344 344 343 343 344 345 343 340 342 345 346 344 345 342 336
325 327 323 319 320 321 318 318 318 317 317 318 318 318 320 323 328 332 332 331 333 333 335 336 337 338 339 345 348 344 343 346 348 355 358 359 362 363 364 364 365 365 363 362 362 361 359 353 345 339 337 337 337 337 336 335 336 336 335 334 334 334 334 334 335 335 335 336 336 336 335 335 338 341 341 338 336 338 343 344 340 341 344 345 346 345 343 343 342 340 341 344 345 343 346 345 339
325 323 320 322 326 325 319 318 320 319 317 318 318 318 321 325 327 330 331 331 331 332 333 335 337 338 337 343 348 344 342 344 346 352 358 359 361 364 364 364 365 366 364 364 362 359 355 351 346 341 338 337 337 338 337 336 337 336 335 335 335 335 335 335 336 335 335 336 336 336 336 335 336 338 341 341 339 336 337 338 338 339 342 346 347 347 345 342 340 339 340 343 344 342 344 346 341
324 320 321 326 326 325 322 319 319 319 317 318 318 317 319 319 322 329 332 330 331 331 331 333 335 337 336 339 345 345 342 343 346 353 358 359 361 363 364 364 364 366 365 364 363 359 355 351 347 341 338 337 337 337 338 337 337 337 336 336 336 336 336 336 336 336 337 337 337 336 336 337 336 336 339 342 343 340 337 337 338 338 339 342 345 346 346 344 339 338 338 339 342 343 343 346 343
327 324 326 325 320 319 320 318 318 318 317 317 317 318 318 318 321 328 330 330 331 331 332 332 333 335 335 335 338 344 344 342 345 352 357 359 360 362 364 364 364 365 365 365 365 363 361 356 350 343 337 335 336 337 337 337 337 337 337 336 336 337 337 336 336 337 338 338 337 336 336 336 337 337 337 339 342 343 340 338 338 338 339 340 341 343 345 345 341 337 337 337 340 343 343 345 344
327 327 328 326 321 319 320 319 319 318 317 318 317 317 318 322 326 329 331 332 331 331 333 332 333 334 335 334 336 341 344 343 343 348 355 359 360 361 363 363 363 365 366 366 366 365 364 361 356 349 342 337 336 336 336 337 337 337 337 337 337 337 336 337 337 337 338 337 335 336 336 336 337 338 338 337 338 341 342 341 339 338 341 341 340 339 341 343 343 338 336 336 338 341 343 344 346
323 323 323 323 323 322 321 321 319 318 317 317 318 317 317 325 331 331 331 334 332 331 333 332 333 334 335 336 337 340 343 344 342 345 352 358 359 360 361 362 363 363 365 366 366 365 365 364 361 355 349 341 337 336 336 335 336 336 337 336 336 337 336 337 337 337 338 337 335 336 335 337 339 340 340 339 337 339 340 342 342 340 342 343 340 339 339 341 343 339 336 336 337 339 342 344 345
324 322 323 322 322 320 319 319 319 319 317 317 318 317 319 327 333 332 332 333 332 333 333 332 332 333 333 334 336 338 342 344 344 344 349 355 359 359 360 362 362 362 364 365 365 366 364 364 363 360 356 347 338 335 334 335 335 335 336 336 336 337 336 336 337 337 337 337 336 336 335 337 341 342 340 339 340 341 340 342 344 343 344 346 343 339 339 339 341 339 335 335 337 338 342 345 344
Wind_Speed
5 5 8 12 11 10 10 8 2 3 3 3 3 3 2 4 5 7 8 7 5 6 11 13 11 10 11 12 13 15 12 9 4 4 8 15 22 24 21 23 26 27 27 26 26 27 28 29 28 26 25 24 24 23 22 22 21 21 21 21 20 19 18 18 18 18 17 17 17 17 16 15 15 14 14 13 13 13 13 13 13 13 13 13 13 12 12 11 11 10 10 9 9 9 8 9 9
6 6 8 10 12 8 7 7 3 2 4 2 2 2 1 1 4 10 9 6 4 10 13 13 12 14 18 16 14 15 16 15 15 17 20 24 25 23 23 25 26 27 27 26 26 27 26 28 27 25 25 24 24 23 22 21 21 21 21 20 19 18 18 18 18 17 17 17 16 16 15 15 14 13 13 13 13 12 12 12 13 13 13 13 12 12 12 11 10 10 10 9 9 9 8 8 8
7 8 10 11 11 6 3 4 3 3 2 1 1 2 1 1 4 12 12 9 10 14 13 13 12 10 13 13 12 13 14 17 22 26 25 25 25 24 25 25 26 27 26 25 25 26 26 27 27 26 25 24 24 23 22 21 21 20 20 20 18 18 17 17 17 17 16 16 16 15 15 14 13 13 13 12 12 12 12 12 13 13 13 12 12 11 11 11 10 10 10 9 9 9 8 8 8
9 9 11 11 8 6 3 1 3 2 3 1 4 5 5 4 7 12 13 13 13 14 12 12 11 10 12 13 14 15 15 19 21 24 24 22 24 27 26 25 24 25 26 25 25 25 26 28 27 26 25 24 24 23 21 21 20 20 20 19 18 18 17 17 17 16 15 15 15 14 14 13 12 12 12 12 11 11 11 12 12 12 12 12 12 11 11 11 11 10 10 9 9 9 9 8 8
9 9 10 9 5 3 2 2 3 1 4 2 6 7 9 8 10 12 12 13 12 12 11 11 10 11 15 14 13 13 15 19 19 20 22 22 24 27 27 26 24 24 24 24 25 25 27 28 27 26 24 24 24 22 21 20 20 19 19 19 18 17 17 16 16 15 15 14 13 13 13 12 11 11 11 11 11 10 11 12 12 12 12 11 12 12 11 11 11 11 10 10 10 9 9 9 8
9 8 9 10 6 4 3 4 5 3 5 2 6 9 11 10 11 12 13 13 11 10 10 10 11 13 15 16 16 14 15 18 19 19 22 25 26 27 27 27 25 24 24 23 23 24 28 29 28 26 23 23 23 22 20 19 19 19 19 18 18 17 17 16 15 14 14 13 12 12 12 11 11 11 11 11 10 10 10 11 11 11 11 11 11 11 11 11 10 10 10 10 10 10 10 9 9
8 7 8 9 8 5 4 6 4 3 6 5 7 10 12 11 12 12 12 11 10 9 8 10 13 13 12 13 15 14 15 17 19 20 23 27 26 26 25 26 26 25 25 23 21 23 28 30 28 26 24 23 22 21 19 19 19 19 18 18 18 17 16 15 14 14 13 12 12 11 11 10 10 10 10 10 10 10 10 10 10 10 10 10 11 11 11 11 11 10 10 10 10 10 10 10 9
9 8 6 5 5 3 5 6 0 5 7 9 10 11 12 12 12 11 9 7 9 9 8 11 11 11 12 14 14 14 16 17 19 22 26 27 26 26 23 23 24 25 26 24 22 24 28 29 28 26 24 23 21 20 19 19 19 18 17 17 17 16 16 15 14 13 12 11 11 11 10 9 9 9 9 9 9 9 9 9 9 9 9 10 10 10 10 11 11 11 11 10 11 11 11 10 9
11 10 5 4 4 3 5 3 4 6 8 10 10 11 11 11 11 11 9 7 9 10 11 12 10 10 14 18 16 15 16 18 23 26 26 26 26 24 22 22 23 22 24 24 24 26 27 27 27 25 24 23 21 20 19 18 18 18 17 17 17 16 15 14 13 12 12 11 10 10 9 8 8 8 8 8 8 8 8 8 8 9 9 9 10 10 10 10 10 11 11 11 11 11 11 10 10
11 10 6 3 4 5 4 2 5 7 9 10 10 11 10 10 9 9 10 9 10 11 13 13 11 14 16 17 15 15 18 21 25 26 25 26 25 22 22 23 23 21 21 23 24 25 26 26 26 25 23 22 21 19 18 18 18 18 17 17 16 15 14 13 13 12 11 10 9 9 8 8 7 7 7 7 7 7 8 8 8 9 8 9 9 9 9 9 9 10 11 11 11 10 10 10 10
8 10 9 3 4 6 1 4 5 7 10 10 11 10 9 9 7 8 10 10 11 12 14 12 12 17 16 14 15 16 20 23 25 26 25 25 23 21 21 22 22 20 20 22 24 24 25 25 25 25 24 22 20 19 18 17 19 18 17 17 16 15 13 12 12 11 10 9 8 8 7 7 6 6 6 6 6 6 7 7 8 8 7 8 8 8 8 8 8 9 10 10 10 10 10 10 10
7 6 6 3 5 5 1 4 7 8 9 10 10 9 10 9 7 8 9 10 11 11 12 10 12 16 13 12 15 18 21 22 24 25 25 24 23 21 21 21 21 20 21 22 24 24 24 24 24 24 23 22 20 19 18 17 19 19 17 17 16 14 13 12 11 10 9 8 8 7 6 6 6 5 5 5 6 6 6 7 7 6 6 6 7 7 7 7 7 8 9 9 10 9 9 10 10
9 4 4 3 6 6 1 4 6 7 8 9 9 10 10 8 8 9 9 10 9 10 9 8 13 14 11 13 16 19 20 22 23 24 25 23 22 22 21 21 21 20 21 22 23 24 23 23 23 22 23 22 20 19 18 18 19 19 17 16 15 13 12 11 10 9 8 8 7 6 5 5 5 4 4 5 5 5 5 6 5 5 5 6 6 6 6 6 6 7 7 8 9 9 9 9 9
10 6 5 3 8 6 2 4 5 5 8 9 9 10 8 8 10 9 9 9 7 10 10 10 15 14 13 14 14 19 20 22 24 24 24 22 22 22 22 22 22 21 21 21 23 24 23 22 23 23 23 21 21 19 18 18 19 19 17 16 15 13 12 10 9 8 8 7 6 5 4 4 4 3 3 3 3 4 4 4 4 4 4 5 5 5 5 6 6 6 6 7 8 9 9 8 8
10 9 5 3 6 4 0 3 5 5 8 9 9 9 8 9 9 9 8 8 10 11 11 11 13 10 12 13 14 20 23 24 25 25 24 22 22 21 22 22 22 22 21 21 22 23 23 22 22 23 23 22 20 19 17 18 19 18 17 16 14 13 11 9 8 7 7 6 6 5 4 3 3 3 2 2 3 3 3 3 3 3 4 4 4 4 5 5 5 5 6 7 8 8 8 8 8
9 8 4 3 5 5 4 5 9 3 7 10 9 8 9 10 7 8 8 7 11 10 9 11 8 6 11 15 19 24 26 27 26 25 24 23 22 22 22 22 23 22 21 22 22 22 22 22 22 23 23 21 20 18 17 18 18 18 17 16 14 13 11 9 8 7 6 5 5 4 4 3 3 2 2 2 2 2 2 2 3 3 4 4 4 4 5 5 5 5 6 7 7 7 7 7 8
6 6 3 3 3 5 7 7 9 2 7 9 9 7 8 10 6 9 8 8 12 9 8 9 6 4 9 17 25 28 29 29 27 26 25 24 23 23 23 23 25 25 23 23 23 22 22 22 22 22 23 21 20 19 18 18 18 18 17 15 14 12 11 9 7 6 5 4 4 4 4 4 3 3 2 2 1 1 1 2 2 2 3 4 4 4 5 5 5 5 6 6 6 7 6 7 8
5 4 4 3 3 6 11 5 6 4 8 6 8 6 6 10 8 8 7 9 11 9 9 10 8 8 11 21 29 31 31 30 28 27 26 25 24 23 24 23 25 26 25 24 23 24 24 23 23 23 23 22 21 19 18 17 18 18 16 15 13 12 10 9 7 5 4 4 3 4 4 4 4 4 3 2 2 1 2 3 2 2 3 3 4 5 5 5 5 5 5 5 6 7 5 6 7
8 5 5 2 2 11 12 3 5 4 6 6 7 5 4 8 8 6 6 9 10 9 10 11 11 13 17 25 30 31 31 30 29 27 26 26 24 24 25 24 24 24 25 25 24 24 24 23 23 24 23 22 21 19 18 17 17 18 16 15 13 12 11 9 8 6 6 5 4 4 4 4 5 5 4 3 2 0 2 3 2 1 2 3 4 5 5 6 5 6 6 5 6 6 6 6 7
10 8 5 2 6 16 7 3 4 6 4 4 6 7 6 6 7 5 5 9 8 7 10 11 14 16 21 26 29 31 31 30 29 27 26 25 24 24 24 25 24 23 24 25 25 23 23 23 23 23 24 23 22 20 19 18 17 17 16 15 13 13 12 11 9 8 8 6 6 5 5 6 6 5 4 3 1 0 1 2 2 2 1 3 4 4 5 5 5 6 6 6 5 5 6 6 7
9 10 4 3 12 12 3 3 4 6 4 5 6 6 7 7 8 5 6 7 6 8 10 11 15 19 23 26 28 31 31 30 29 27 26 24 23 23 23 23 24 23 22 24 26 24 23 24 23 23 24 24 23 21 20 19 18 18 17 15 14 13 13 12 10 10 9 8 7 6 6 7 6 5 4 4 2 1 1 1 2 2 2 3 3 4 4 3 4 5 6 7 6 5 5 4 4
8 10 5 5 13 6 5 2 5 4 2 4 2 3 7 8 7 6 5 3 3 6 11 13 17 22 25 27 28 29 31 31 30 28 27 25 24 23 22 22 22 22 22 22 24 25 25 25 24 23 24 24 23 21 20 19 19 19 18 16 15 14 13 12 11 11 10 9 8 7 7 7 6 6 5 5 5 4 3 2 2 2 2 3 2 4 3 2 5 5 5 5 4 4 4 3 3
8 8 8 9 12 6 2 1 2 1 2 1 1 3 5 5 6 6 5 3 5 7 10 14 18 22 25 28 29 29 31 31 30 28 27 26 25 24 22 23 23 22 23 22 22 24 24 25 26 24 25 26 24 22 21 20 20 19 18 17 16 14 14 13 12 11 11 11 9 8 8 7 7 7 6 6 6 5 3 2 1 1 1 2 1 3 3 3 3 2 3 3 1 2 3 3 4
12 8 9 10 10 9 5 3 4 5 4 4 3 1 4 5 4 6 6 7 7 8 10 14 19 22 24 28 29 29 30 30 29 27 27 26 25 24 23 23 23 22 23 22 23 24 23 24 26 25 25 25 24 23 21 19 20 19 18 18 17 15 14 13 12 11 11 11 10 11 10 7 7 7 6 6 6 5 5 4 3 2 2 1 1 2 3 3 2 2 3 3 3 3 3 3 3
15 11 10 9 9 10 8 7 8 9 8 7 6 5 6 5 3 4 7 9 9 8 11 16 20 22 23 26 27 28 29 28 29 28 27 26 25 24 23 23 23 22 23 23 23 24 24 23 24 24 24 24 23 22 20 18 19 18 17 17 16 15 15 12 12 12 11 11 11 12 11 8 7 7 7 6 6 6 5 5 4 3 3 1 1 1 2 2 2 3 3 2 3 3 3 3 3
13 15 14 11 10 10 9 10 11 11 11 8 8 8 7 6 5 5 8 10 11 10 12 17 22 23 23 25 26 28 29 28 28 28 27 26 25 25 23 23 23 23 23 23 23 24 25 24 24 23 23 24 23 22 21 18 18 18 17 17 16 16 15 12 12 12 11 10 11 13 13 11 8 6 7 7 6 6 6 5 4 3 2 1 1 2 2 2 2 2 2 2 3 3 3 3 3
11 13 17 15 12 12 11 12 14 13 12 11 10 8 8 8 7 6 9 12 12 13 15 19 22 23 24 24 25 27 28 28 28 27 27 26 26 26 25 24 23 23 23 24 23 23 25 25 25 24 23 24 24 22 21 20 19 18 18 17 16 16 15 14 13 11 11 10 11 13 14 13 10 6 7 8 7 6 6 5 4 3 2 2 1 2 3 2 2 3 4 3 3 3 3 4 3
12 10 12 15 14 15 14 14 15 14 11 12 11 10 10 9 8 6 10 15 14 14 16 19 20 22 23 24 25 26 27 27 27 28 28 27 26 26 25 24 24 23 23 24 24 23 25 26 26 26 24 24 24 22 21 20 19 19 18 17 16 15 15 15 13 12 12 11 12 13 13 14 12 10 11 11 8 6 6 5 4 4 3 2 2 3 3 2 2 4 6 6 5 4 4 4 4
16 12 10 12 14 15 17 16 16 14 11 12 12 10 11 11 11 9 11 16 16 16 17 18 19 20 22 24 26 26 26 27 27 28 28 27 26 26 25 24 24 23 23 23 23 23 25 25 25 26 26 24 24 23 21 20 19 19 19 17 16 16 16 15 13 13 12 12 14 14 13 14 14 13 12 12 10 7 7 6 5 4 3 3 3 4 3 2 2 4 6 6 5 5 4 3 3
15 13 10 11 12 13 16 18 18 16 13 15 11 7 9 10 13 13 12 15 15 16 18 17 19 21 22 24 26 27 27 28 29 28 28 28 26 26 26 25 25 24 23 23 24 23 24 25 25 26 26 26 25 24 22 21 19 19 19 18 17 16 16 16 15 13 14 14 14 14 14 14 14 13 11 11 10 8 6 7 6 4 4 5 3 4 4 3 3 4 4 5 5 4 3 2 2
12 12 10 9 10 10 15 18 18 17 14 17 13 7 7 7 13 15 13 15 15 16 18 17 19 21 22 23 25 27 28 29 29 28 28 28 26 26 27 26 26 24 23 24 25 24 24 25 25 25 27 27 26 25 23 22 20 19 19 18 18 17 16 16 15 14 15 15 14 14 15 14 14 14 12 11 11 9 7 7 6 5 6 5 3 4 3 1 3 4 3 4 5 3 2 2 2
10 11 10 10 10 10 14 17 18 16 15 18 14 7 7 7 11 16 14 14 14 15 18 19 20 21 20 20 22 25 27 28 28 28 28 29 27 26 27 27 26 25 24 24 26 25 24 25 24 25 26 26 27 27 24 23 21 20 20 19 19 19 17 16 15 14 14 14 14 14 15 14 14 15 13 12 11 10 8 6 6 7 7 5 3 5 3 1 3 4 4 4 4 3 3 2 2
10 11 10 11 13 11 11 14 17 17 14 16 15 9 7 6 11 15 15 14 13 13 16 19 20 20 21 19 20 22 26 28 28 28 28 29 28 27 27 27 27 26 25 25 26 27 25 25 25 24 25 25 26 26 24 22 22 20 19 19 19 19 19 16 16 15 14 14 14 14 14 15 15 15 14 13 12 11 8 6 6 8 7 5 6 5 2 2 4 4 4 4 4 3 3 2 2
10 10 11 12 14 12 11 11 16 18 15 15 16 12 9 7 11 14 15 14 13 12 14 18 19 19 21 20 21 22 24 27 29 29 30 30 28 27 28 28 28 27 26 26 27 28 26 25 25 24 24 25 23 22 21 19 19 18 17 17 17 18 18 16 15 15 15 14 14 15 15 15 16 16 15 13 13 12 10 8 7 8 8 6 7 5 2 3 3 3 4 4 4 2 3 1 1
12 12 11 12 13 14 14 12 13 17 16 15 15 13 12 10 11 14 15 15 13 11 13 17 19 20 22 22 22 21 23 26 29 30 31 30 29 28 28 28 29 28 26 27 27 28 27 26 26 25 24 25 23 20 18 17 17 17 16 16 16 17 17 16 15 15 16 14 14 17 17 16 16 16 15 14 13 12 11 9 8 10 9 7 6 4 2 4 3 2 3 3 4 2 3 2 2
15 15 12 12 13 13 14 12 12 15 16 17 16 14 13 14 13 14 16 16 14 12 13 16 19 19 21 22 22 21 23 26 27 29 31 31 30 29 28 29 29 29 27 28 28 29 29 27 27 27 25 26 25 20 19 18 18 18 17 18 18 18 18 17 16 16 16 15 15 17 18 17 16 16 16 15 13 13 12 10 11 12 9 7 6 4 4 4 3 3 2 3 4 1 2 3 2
16 14 14 15 15 13 12 12 12 12 12 15 16 16 15 14 16 16 17 17 14 14 13 15 19 20 20 22 22 22 23 24 25 27 29 30 30 29 29 29 30 29 28 29 30 31 31 29 29 29 27 27 27 22 20 21 21 20 20 20 19 19 19 18 18 17 16 16 16 17 18 17 18 17 16 15 14 13 12 11 12 12 9 7 7 6 5 4 3 2 1 3 3 1 3 3 2
18 14 13 14 14 13 13 15 15 12 10 11 13 16 17 15 16 15 15 15 14 15 14 15 18 19 21 22 22 21 22 23 26 28 30 30 30 30 29 29 31 32 30 31 32 32 32 30 30 30 29 28 28 25 23 24 24 22 21 21 20 18 19 19 19 18 17 16 17 19 19 18 19 19 17 15 15 13 12 12 13 12 9 8 8 7 5 4 2 1 1 2 1 2 3 1 3
18 13 11 12 11 12 14 16 17 13 8 9 14 14 15 15 15 13 12 13 16 18 16 15 17 18 20 21 21 21 24 26 28 30 32 32 31 31 30 30 32 33 32 32 32 32 32 31 30 32 31 30 29 28 27 25 24 23 21 21 19 18 18 19 18 17 17 16 17 20 20 18 19 19 17 16 15 14 13 13 13 12 10 10 9 7 5 4 2 1 1 2 1 2 2 2 4
15 13 11 11 12 12 12 13 16 15 9 9 14 14 13 14 15 14 17 18 17 19 19 17 17 19 20 20 22 24 27 28 29 31 33 33 32 32 31 31 32 33 32 33 33 33 34 33 33 34 33 32 30 30 28 25 25 24 21 19 19 18 16 17 18 17 17 17 17 20 21 19 19 18 17 16 15 14 14 14 13 12 11 10 9 7 6 4 3 3 2 3 2 3 2 2 3
15 17 14 13 15 15 12 12 15 16 13 12 14 12 10 13 15 14 16 19 15 18 21 19 17 20 23 23 24 25 27 27 28 31 33 34 34 34 33 31 32 33 34 34 35 36 35 35 36 36 35 34 33 32 30 26 24 23 21 20 19 19 17 17 19 18 18 19 19 20 20 19 20 19 18 17 16 15 14 14 13 12 11 11 9 8 7 5 4 4 3 3 3 4 3 2 3
14 19 19 17 17 18 16 15 14 12 11 13 14 11 9 13 16 15 14 16 17 18 19 20 19 19 24 27 27 28 27 25 27 31 34 36 35 34 33 32 33 34 35 36 36 36 36 37 38 38 37 36 35 34 33 29 25 22 22 22 21 22 21 20 21 20 19 20 20 20 19 19 20 20 19 18 16 15 15 14 13 12 12 11 9 8 7 5 5 5 4 4 3 6 6 4 4
11 15 20 21 20 18 17 17 15 10 8 11 14 12 9 11 15 17 17 17 19 18 17 19 20 19 21 25 25 28 29 26 27 30 33 35 36 36 35 34 34 35 35 36 35 36 36 38 40 40 39 38 37 36 35 33 28 24 24 24 23 25 25 23 22 20 19 20 19 19 18 19 20 20 20 19 17 16 15 14 13 12 12 11 9 9 8 5 5 5 5 5 4 6 7 7 6
10 12 16 20 21 21 19 17 14 9 9 11 14 14 11 10 12 15 17 19 21 18 16 16 19 20 22 22 23 26 28 29 30 31 33 35 37 38 39 38 36 35 34 35 36 36 38 39 40 41 41 40 39 38 36 35 33 28 25 26 26 25 25 24 23 21 19 18 18 18 18 19 20 20 20 20 18 17 16 15 14 13 12 11 10 10 8 7 8 8 6 6 6 6 7 7 8
12 11 13 15 18 21 20 16 12 10 10 10 14 15 12 10 9 11 14 18 19 16 16 15 17 20 21 20 23 25 28 31 33 33 34 35 38 39 40 39 37 34 34 35 37 37 38 40 41 41 42 42 41 40 38 36 35 32 29 28 28 28 25 23 22 22 22 20 19 20 20 19 20 19 19 20 19 18 18 17 15 14 13 12 11 9 8 8 9 8 7 7 7 7 9 8 10
13 14 14 12 11 14 16 15 12 11 12 12 15 16 12 9 10 11 14 16 15 13 14 15 17 20 19 20 23 24 26 29 31 32 32 34 37 38 38 38 37 35 35 36 36 36 38 40 40 41 42 42 42 42 41 39 37 35 33 30 30 31 29 25 21 21 23 24 23 22 22 22 21 20 18 20 21 19 18 18 17 15 14 13 12 11 10 10 10 9 8 8 8 8 9 8 10
14 14 12 8 7 8 10 10 10 11 13 15 18 19 16 11 9 11 13 14 15 13 13 14 17 20 21 22 23 23 25 27 28 29 30 32 33 34 35 36 37 37 35 35 35 35 37 40 41 41 42 42 43 43 42 41 39 38 36 34 34 33 33 31 26 23 24 26 26 26 24 23 23 22 20 20 21 20 18 18 18 17 16 14 13 12 12 11 10 9 9 9 9 10 10 8 9
15 13 10 8 7 8 7 8 9 11 12 13 18 21 19 14 10 10 12 15 18 17 15 17 18 20 23 25 25 24 25 26 27 28 29 31 31 33 35 36 37 37 35 35 36 36 37 40 42 42 42 42 42 43 43 42 41 40 39 37 35 35 35 34 32 29 26 27 28 27 26 25 25 24 23 22 22 21 21 20 18 18 17 16 14 13 13 12 11 10 10 10 10 11 12 10 9
14 12 11 10 8 8 9 10 10 12 11 11 16 19 17 15 11 12 14 15 17 16 15 18 21 24 28 28 27 24 25 26 27 28 29 31 33 34 36 37 38 39 39 38 38 37 39 42 43 42 42 42 42 43 43 43 42 42 40 38 36 36 36 35 35 33 30 30 29 28 28 27 27 26 25 24 22 21 22 21 20 20 19 18 16 15 14 14 14 12 11 11 11 12 13 12 10
14 12 11 10 9 9 10 10 10 11 11 12 16 16 14 14 11 15 19 16 15 16 18 22 25 28 30 29 25 22 23 25 26 28 29 32 34 36 37 38 39 40 41 41 40 39 40 43 44 43 43 43 43 43 43 43 43 42 41 39 38 38 37 37 36 35 33 33 32 31 29 28 28 28 27 26 23 21 21 21 20 20 20 19 18 17 16 15 15 14 13 13 12 13 14 14 11
14 13 11 11 9 9 9 9 9 9 9 13 16 13 11 11 7 11 18 19 18 17 19 23 23 24 28 28 22 20 23 25 25 27 30 32 35 36 37 38 39 41 41 42 42 41 42 44 46 45 44 43 43 43 44 44 43 42 42 40 39 39 39 38 37 36 35 35 34 33 32 30 29 28 27 27 26 23 23 23 21 19 20 20 19 19 18 17 17 15 15 16 14 14 15 15 13
12 12 12 12 11 9 7 7 9 9 8 10 12 10 9 8 7 7 10 16 20 18 17 19 19 20 24 27 24 23 24 24 25 27 30 32 34 35 37 37 38 39 40 41 42 43 44 46 47 47 45 44 44 44 45 44 43 42 42 41 41 40 40 39 38 38 37 36 36 35 34 33 30 28 28 28 27 26 26 26 24 20 20 21 20 20 20 19 19 17 17 18 17 16 17 16 15
10 13 13 12 13 11 7 7 8 8 8 7 8 10 9 7 8 9 8 11 17 20 18 17 18 20 21 25 28 26 25 25 27 29 31 32 33 35 37 38 38 38 40 42 44 47 48 48 48 48 47 45 45 45 45 45 44 43 43 43 42 42 42 41 40 39 38 37 37 36 36 35 33 31 29 28 28 28 27 27 27 24 22 21 20 20 20 21 20 18 18 18 19 18 18 18 17
9 12 14 11 12 11 8 7 7 8 8 7 8 12 11 8 7 9 13 14 14 19 21 19 19 21 21 23 28 28 27 26 27 30 31 31 34 36 37 38 39 41 42 44 46 47 48 48 48 48 48 48 47 46 46 46 46 45 45 45 43 43 43 42 41 40 39 39 38 38 37 36 35 33 31 30 29 29 29 28 29 28 26 24 22 21 20 21 21 20 18 18 19 20 20 20 19
14 10 13 11 10 11 9 7 8 9 8 7 10 11 10 9 8 8 13 16 15 15 17 19 20 20 21 23 27 31 31 28 27 28 29 31 33 36 37 38 39 41 43 43 43 44 44 46 47 47 47 47 47 47 47 47 47 46 46 46 44 43 43 43 42 41 41 40 40 40 39 38 36 35 34 32 31 30 30 30 30 29 28 27 26 25 23 22 22 22 20 19 19 21 22 22 21
17 12 13 12 9 9 10 8 7 7 7 7 9 10 9 9 10 11 11 13 15 15 15 16 17 18 21 23 25 29 29 27 27 27 28 31 34 36 38 38 37 38 38 39 40 41 41 43 45 46 46 46 47 48 48 48 48 48 47 46 45 45 44 43 43 43 43 43 42 41 40 39 37 36 35 34 34 33 32 31 31 30 29 28 28 28 26 25 24 23 23 21 20 21 23 24 22
16 13 13 12 10 8 9 9 8 8 8 6 6 7 6 5 7 10 9 9 11 14 15 14 14 17 21 22 23 25 27 26 25 26 28 31 32 34 35 35 34 34 35 36 38 40 40 40 43 45 46 47 47 48 48 49 49 49 49 48 47 46 45 44 44 44 45 44 43 42 41 39 37 36 35 35 35 34 33 33 32 31 31 31 31 31 29 28 27 26 25 23 22 23 24 24 24
16 13 12 13 12 10 10 10 10 9 8 6 6 6 2 4 3 4 7 9 9 10 12 12 14 18 21 22 22 23 24 24 24 25 26 28 30 30 31 31 31 32 34 36 37 39 40 41 42 43 44 46 47 47 48 49 50 51 51 50 49 48 46 46 45 45 46 46 44 43 42 40 38 37 36 36 36 35 34 33 32 32 32 31 32 32 31 31 30 29 27 26 25 25 24 24 24
Wind_Direction
192 155 131 138 164 163 169 189 206 216 209 270 247 240 209 161 148 118 107 105 116 116 104 96 85 72 86 110 102 86 79 67 72 96 103 134 149 150 144 142 144 143 143 143 144 143 143 145 144 141 138 136 134 134 135 138 137 132 129 125 122 117 112 108 105 104 103 100 96 96 95 95 93 91 91 91 92 92 92 92 92 90 88 87 88 88 86 85 85 86 87 86 88 91 91 88 87
189 154 150 160 179 177 177 197 234 238 203 251 244 233 26 38 120 115 129 162 132 112 102 96 97 88 94 110 108 84 67 71 87 95 110 134 144 149 147 144 145 145 144 143 145 143 144 147 145 141 139 138 136 136 137 139 136 132 129 126 123 117 113 109 106 105 102 100 96 96 95 96 95 94 93 92 92 92 92 91 90 87 87 87 86 86 86 84 82 81 80 80 81 83 86 86 87
178 165 172 176 183 203 214 193 244 275 236 147 142 232 157 84 87 98 122 143 116 108 100 100 102 78 84 90 86 85 81 89 99 106 120 136 142 147 146 145 146 145 144 143 145 146 148 149 146 144 141 140 139 139 139 139 136 132 129 127 124 117 114 110 107 105 103 100 98 96 96 97 96 95 93 93 93 93 92 90 88 86 85 85 84 83 84 84 82 80 78 77 76 78 82 87 90
178 188 182 184 190 217 240 208 251 299 290 185 121 176 160 112 85 87 101 109 110 111 103 102 87 55 73 85 87 90 94 102 108 116 128 141 143 144 145 145 144 142 144 145 146 148 152 152 149 147 144 143 142 142 142 141 138 135 131 128 125 119 115 111 108 105 104 102 100 98 96 97 97 97 96 96 96 95 92 89 87 85 84 84 83 80 79 80 81 81 80 80 77 76 78 84 89
183 205 197 198 196 206 224 249 248 200 239 262 85 126 128 107 98 96 103 106 116 117 104 96 90 83 74 72 87 97 106 111 116 122 128 139 142 143 144 144 142 141 145 147 147 150 155 154 152 150 147 145 144 145 145 142 140 139 134 130 127 121 117 113 109 107 106 105 104 101 98 98 99 100 99 99 98 95 92 89 88 85 84 81 80 78 76 77 78 81 83 83 81 79 79 81 82
185 212 221 221 239 249 233 244 237 171 181 203 69 92 92 92 97 103 111 108 110 111 102 90 99 103 78 71 80 95 119 121 122 126 130 137 141 143 144 142 142 143 145 147 148 152 157 156 154 152 149 147 147 148 148 144 143 143 136 132 129 122 119 114 111 110 108 108 107 105 101 99 101 103 101 102 99 94 90 88 87 85 82 78 78 79 77 76 76 79 82 83 83 83 82 81 79
201 218 221 225 250 249 243 257 245 104 108 96 78 89 87 93 104 111 115 111 111 104 101 98 104 105 91 91 82 89 120 126 125 129 135 137 141 142 143 144 143 147 146 146 151 154 157 157 155 153 152 150 149 150 150 146 147 145 138 135 130 124 120 116 114 112 110 111 109 108 105 100 101 104 104 103 101 96 91 88 85 83 81 79 80 80 79 79 78 81 83 84 85 85 85 84 81
220 232 231 246 256 224 249 266 61 73 81 78 75 87 93 105 111 111 109 115 121 114 118 109 105 104 95 96 95 102 114 122 127 131 136 137 142 141 143 145 143 148 147 148 155 158 158 158 155 154 154 153 152 153 151 149 150 148 141 136 131 127 123 119 118 115 114 113 111 111 109 104 102 104 105 103 101 99 95 91 86 84 82 80 80 78 78 78 79 81 83 85 85 85 87 86 85
225 235 251 277 264 252 252 240 92 85 85 83 86 96 103 110 114 113 116 130 128 126 128 109 97 102 97 96 105 115 112 120 128 133 137 139 143 141 145 146 142 145 147 152 157 159 160 159 156 155 156 157 156 156 153 151 153 151 144 138 134 130 126 123 121 118 116 113 112 113 112 110 105 104 104 103 102 100 97 92 88 85 84 81 78 77 76 77 80 81 82 83 83 84 85 86 85
230 234 249 280 282 275 243 150 94 91 90 92 98 105 109 111 114 113 115 125 128 127 122 107 100 106 105 104 107 117 122 128 132 135 140 142 143 144 150 145 141 144 145 150 153 158 162 161 160 158 159 160 160 159 156 155 156 155 148 140 137 133 130 126 124 121 117 113 113 114 117 116 107 103 104 107 104 101 98 92 89 87 84 80 77 77 75 76 79 81 82 81 81 81 81 83 83
236 239 243 268 286 273 251 94 101 97 94 97 94 96 101 101 102 101 101 111 121 125 123 115 113 111 105 103 103 116 128 133 137 139 143 144 143 147 147 138 140 145 142 145 151 157 160 162 163 162 162 162 164 163 160 159 159 158 150 144 140 137 133 129 126 123 120 116 116 119 122 119 113 106 107 111 107 104 98 91 88 86 82 77 75 76 73 72 75 78 80 80 79 79 79 79 78
241 248 245 259 269 267 51 85 93 98 104 101 95 95 96 97 96 95 101 113 116 125 131 133 131 121 110 104 111 125 133 137 140 142 145 145 145 146 144 140 142 143 140 145 153 157 158 161 163 164 165 164 166 165 164 164 162 160 153 148 145 141 137 132 130 126 124 120 121 125 125 125 122 116 113 112 109 103 96 92 87 84 80 75 75 74 73 72 73 76 78 78 76 76 77 79 79
239 252 266 278 266 262 113 95 96 112 110 93 95 99 100 103 99 97 104 111 117 126 127 134 131 118 110 114 126 136 139 143 144 146 148 147 147 147 145 145 144 142 142 146 153 157 158 159 161 165 167 167 167 166 167 167 164 161 156 152 149 145 142 137 134 130 128 126 126 130 133 133 131 130 118 111 108 104 98 94 89 84 78 71 74 72 74 73 71 76 74 73 71 72 75 79 80
246 258 269 274 256 252 108 107 119 119 98 92 104 108 112 100 95 102 110 110 105 114 112 123 123 108 111 120 137 150 148 150 149 149 151 149 149 149 148 147 145 145 144 148 153 154 154 157 159 164 167 167 169 168 168 169 165 162 159 157 154 150 148 144 140 136 133 132 134 137 141 140 137 135 114 106 104 103 101 96 93 87 77 67 70 71 72 71 69 75 76 73 68 67 70 71 71
257 276 284 290 282 286 112 107 81 84 98 101 107 113 113 93 100 107 103 103 91 100 113 129 130 122 139 146 157 159 155 154 153 151 152 152 152 151 151 149 147 148 148 150 154 155 154 156 160 163 165 166 168 168 168 169 166 163 163 162 159 157 156 153 149 144 141 140 141 142 143 140 133 124 100 96 85 90 91 89 90 81 75 68 68 70 69 69 66 69 77 77 70 66 66 64 59
258 289 299 273 304 312 271 91 64 51 106 99 106 121 112 96 105 96 84 100 104 114 126 131 130 133 158 157 156 157 155 155 154 153 153 153 154 154 153 153 150 148 152 153 154 158 158 159 161 163 165 166 167 168 170 170 167 167 168 166 165 164 164 164 160 154 150 145 146 143 133 128 126 126 112 97 77 72 71 64 69 67 69 68 69 69 65 66 64 69 80 82 74 64 62 59 54
257 278 278 273 337 311 289 82 85 90 101 108 125 127 112 107 98 88 96 114 117 130 126 125 116 103 147 148 149 153 155 155 155 155 155 156 156 158 157 159 158 154 155 155 156 158 159 162 164 165 167 167 167 170 172 172 171 171 173 171 171 173 176 176 170 164 158 157 151 140 135 140 147 154 153 135 118 79 54 38 47 59 65 65 65 64 61 61 61 70 80 83 71 54 54 49 42
243 247 246 271 33 288 286 59 108 135 106 117 131 128 117 119 110 106 134 125 122 137 123 123 110 87 114 133 143 150 154 157 158 158 159 160 161 162 161 163 166 164 160 159 161 161 160 164 168 169 170 168 169 171 171 176 177 175 177 179 179 183 188 186 180 177 179 182 164 153 154 157 171 183 186 182 178 134 35 24 33 53 67 70 69 66 63 65 67 73 76 77 64 48 54 47 33
226 246 249 225 130 241 257 33 62 78 97 112 126 143 112 110 120 135 160 127 129 144 132 137 123 107 118 133 144 149 156 160 161 162 162 164 164 165 166 165 166 167 167 166 167 168 166 168 170 171 172 171 171 172 174 179 182 180 183 186 189 194 196 196 191 192 201 201 187 175 168 174 194 205 203 201 205 153 21 17 26 50 80 84 80 70 61 64 62 65 64 58 55 47 52 38 21
218 239 256 122 228 235 225 74 63 52 58 89 109 130 118 125 141 156 161 132 141 153 142 149 138 129 133 140 148 151 158 163 164 166 165 167 168 168 169 167 167 167 171 170 168 170 172 171 170 172 174 173 172 174 177 181 183 183 186 189 194 197 198 199 197 201 209 208 202 184 178 199 207 217 215 197 207 258 360 13 32 35 90 88 77 63 55 57 53 60 54 49 49 41 49 32 12
220 233 233 149 240 243 131 94 87 67 23 55 87 128 136 148 151 162 168 146 156 161 152 156 148 143 144 148 154 156 160 164 167 169 169 171 170 170 171 170 170 168 170 172 170 170 172 173 172 174 176 175 175 176 178 184 185 182 186 191 194 197 198 199 200 206 212 209 207 185 185 209 198 208 219 181 173 198 241 340 36 39 73 72 53 30 34 35 36 54 48 43 37 16 33 31 16
236 245 244 198 244 248 116 157 83 75 340 58 100 130 126 143 156 173 187 167 117 143 152 154 153 151 152 156 160 162 163 166 170 172 173 174 173 174 173 172 171 169 171 174 174 174 175 176 174 176 179 177 177 176 178 185 184 182 187 191 190 195 196 197 199 204 211 209 204 185 189 209 188 197 212 181 185 192 216 298 8 26 64 66 43 350 358 27 14 31 41 35 29 8 15 7 19
240 243 237 228 249 261 132 174 114 191 294 3 341 62 117 157 167 171 188 176 96 108 142 146 153 156 158 160 163 166 166 168 171 174 176 176 175 176 175 174 174 173 173 173 175 179 181 179 176 179 181 180 179 178 182 186 184 182 188 191 188 193 195 195 198 199 210 210 198 188 191 205 193 196 207 192 191 186 195 239 322 316 66 72 70 319 327 52 16 16 50 25 24 28 13 359 360
236 248 239 233 245 252 247 239 217 238 266 268 287 14 195 197 168 161 180 188 138 117 135 142 149 155 160 162 166 170 169 170 171 175 180 180 178 177 176 176 177 176 176 175 175 179 182 182 181 185 185 182 182 181 184 188 187 184 188 193 187 191 195 194 197 195 208 212 199 193 189 197 200 195 206 203 192 188 197 193 199 226 207 149 120 317 340 29 7 14 38 10 7 20 15 355 345
228 246 254 246 243 241 239 237 233 240 249 255 252 245 232 213 209 189 172 180 166 144 142 144 148 155 162 167 170 171 171 174 174 177 181 183 181 179 177 177 179 179 179 178 177 179 179 183 185 187 188 186 185 185 186 188 188 185 190 193 188 193 195 191 198 195 204 210 206 204 190 187 202 197 201 202 194 197 204 197 193 228 237 222 40 337 347 5 351 10 18 3 1 9 15 340 336
223 235 247 248 244 237 230 231 232 236 241 247 241 237 236 213 217 220 180 175 169 159 156 152 153 159 165 170 174 173 174 177 178 179 180 181 182 182 180 179 180 182 182 180 180 181 179 183 184 184 188 187 186 187 186 188 188 187 191 192 190 197 193 189 199 196 201 204 209 216 200 188 193 198 204 197 199 205 204 205 199 219 259 280 347 311 321 351 2 351 331 340 341 346 5 337 340
221 230 242 247 251 246 236 232 232 235 237 241 243 241 240 218 204 205 182 178 170 161 161 159 160 164 166 171 174 175 177 179 180 180 179 181 183 183 182 182 181 182 183 183 182 181 180 182 184 184 186 186 187 188 187 188 188 189 194 193 192 198 193 193 197 195 201 199 208 220 212 200 187 187 208 201 200 209 207 212 209 206 239 254 276 301 308 330 351 320 317 343 354 1 7 347 356
229 229 239 243 247 250 243 238 235 234 237 236 239 243 241 225 212 208 178 175 172 169 167 164 167 168 168 171 173 176 179 180 181 181 182 183 184 184 183 183 182 182 183 185 185 182 182 183 184 186 187 188 187 188 189 189 189 190 195 194 193 197 197 198 197 197 199 196 210 217 213 209 194 190 208 206 199 203 209 210 210 212 223 250 274 274 285 313 313 316 340 7 15 10 8 349 2
239 240 242 240 235 240 235 231 229 227 231 228 231 239 234 223 215 203 172 167 170 174 171 169 174 173 172 171 171 176 179 180 182 185 185 184 185 185 185 185 183 183 183 185 185 184 184 183 185 187 189 191 188 187 191 191 190 191 195 195 195 198 199 199 197 201 199 198 214 215 209 211 203 202 209 207 200 200 212 212 208 217 231 243 260 276 304 348 310 319 344 2 6 1 8 360 11
235 239 244 245 236 234 225 223 222 219 223 219 223 240 229 216 203 194 175 166 173 180 171 172 183 179 176 174 172 175 179 181 184 186 186 185 186 187 187 187 184 183 183 183 185 185 184 184 185 187 189 193 190 188 193 193 192 194 196 196 198 200 200 200 198 201 203 204 214 214 210 212 208 207 208 206 203 201 215 222 214 212 236 248 268 298 328 1 319 325 337 343 360 5 1 360 34
226 233 235 241 243 236 217 212 212 213 216 211 216 237 236 211 180 180 180 170 179 188 169 172 193 184 177 178 176 176 179 183 185 186 187 185 185 187 186 186 185 184 183 184 185 185 185 185 186 187 190 193 190 190 194 195 194 194 196 197 200 202 199 200 200 202 208 208 214 216 214 215 212 208 205 206 206 201 210 226 222 213 233 250 272 288 310 336 298 317 336 347 5 5 4 50 70
218 227 228 225 235 243 219 204 205 212 207 202 213 230 234 219 167 165 175 177 188 193 174 176 194 186 174 181 183 179 179 182 185 186 186 186 185 186 186 186 185 185 184 184 185 184 185 186 186 187 190 191 190 191 194 196 195 194 196 197 200 202 199 199 200 202 209 208 210 218 220 217 214 212 208 208 208 203 208 220 225 229 237 243 251 272 300 294 272 306 347 10 9 13 42 81 79
212 221 231 222 220 234 224 195 199 214 209 197 209 230 234 198 162 165 170 177 193 195 185 182 190 185 172 180 192 187 181 180 185 187 186 186 186 185 186 186 185 185 185 184 184 185 185 186 187 187 190 189 189 192 194 196 197 196 197 198 202 201 199 200 200 200 204 208 207 212 220 216 213 214 213 211 209 206 211 216 228 248 254 246 258 277 289 272 277 309 348 14 6 27 67 82 63
208 212 227 231 222 223 220 194 190 207 216 205 203 219 234 186 162 174 174 179 195 196 196 188 188 185 169 177 197 194 186 182 184 187 186 185 185 185 185 185 186 185 186 185 185 186 185 186 186 186 189 189 189 191 192 194 195 196 196 198 203 202 201 202 204 202 201 206 207 209 215 213 212 213 215 214 211 209 214 216 221 246 258 254 267 280 251 259 277 304 337 359 353 31 90 70 52
209 208 216 231 229 221 215 206 189 193 210 218 212 212 222 210 181 176 180 192 199 195 201 192 189 187 171 180 197 194 192 190 187 186 185 184 183 184 184 184 185 185 186 185 185 186 185 187 186 185 188 188 189 188 188 190 192 195 195 196 202 204 203 201 205 207 204 204 207 213 214 211 211 212 214 214 213 213 217 222 225 237 250 255 267 278 264 265 281 330 352 347 341 21 112 93 76
217 214 216 221 228 228 217 214 201 193 206 217 221 224 220 217 209 191 186 195 203 202 202 192 189 188 180 186 193 192 199 197 189 186 184 184 183 183 183 183 184 184 186 185 185 186 185 187 186 186 186 186 191 190 186 189 192 196 196 197 202 205 204 202 205 208 207 205 208 216 215 211 213 214 214 214 214 217 219 223 232 240 243 248 256 251 250 267 302 1 4 329 341 29 106 96 100
231 223 223 221 225 229 217 217 211 194 210 218 217 230 228 218 220 208 185 187 206 210 201 195 192 184 182 191 192 194 203 199 190 186 184 184 184 182 181 182 183 184 185 185 186 187 187 187 187 187 185 185 190 191 188 189 191 195 196 198 202 205 203 203 206 207 207 206 207 216 218 212 214 217 217 216 217 220 221 221 231 240 238 242 252 243 244 266 302 337 302 320 345 99 77 82 145
236 232 229 225 225 227 214 212 211 192 203 227 221 230 234 225 228 218 183 181 204 212 203 199 199 186 182 191 192 194 203 201 192 184 183 185 184 182 181 181 183 183 185 186 186 189 189 188 189 189 186 186 189 189 188 190 192 194 196 198 200 204 205 204 207 207 206 206 208 215 219 215 216 221 219 218 220 219 222 225 231 239 234 231 244 247 249 265 287 310 306 308 311 138 95 116 214
232 234 234 234 224 226 224 215 217 206 195 229 232 234 237 232 236 234 213 202 199 204 211 206 199 192 186 188 186 192 205 203 192 183 182 185 184 184 182 182 184 184 184 186 186 189 190 189 192 194 190 188 190 191 192 192 193 195 197 198 197 202 208 208 208 208 206 207 212 218 221 218 219 223 221 220 221 219 223 227 232 239 238 234 240 248 248 255 270 258 250 246 188 116 137 215 219
228 228 226 233 222 221 227 215 219 217 199 228 240 238 238 235 234 231 231 229 203 193 209 213 200 189 187 191 187 192 205 202 191 183 181 183 184 185 185 183 184 184 184 186 186 189 192 191 195 200 199 194 193 196 199 197 194 194 196 199 199 200 209 212 210 210 209 206 212 224 226 221 222 225 224 223 221 221 225 228 231 235 240 243 241 244 240 242 254 237 233 225 164 114 167 224 194
225 228 224 229 226 225 230 222 223 219 206 222 241 245 240 235 237 228 227 235 219 194 202 214 209 189 180 187 191 195 205 206 195 186 181 182 184 186 186 184 184 185 185 187 189 192 196 196 200 206 207 204 201 203 206 202 198 196 195 199 201 200 205 212 210 208 211 208 209 223 228 222 223 226 226 227 223 223 226 228 231 232 239 248 244 242 237 226 231 226 229 224 177 155 171 204 206
221 225 228 233 234 233 236 236 234 225 214 216 226 241 243 232 237 238 230 231 223 200 198 211 216 201 183 183 190 194 198 205 203 192 184 183 184 184 186 186 185 186 187 189 192 195 198 201 205 209 210 210 208 210 212 207 202 200 196 198 202 202 202 207 210 206 209 213 210 218 228 225 224 226 226 227 224 224 227 227 230 229 235 246 242 238 238 227 224 221 220 229 198 179 182 183 189
223 216 220 229 240 242 239 239 236 230 230 222 215 226 244 235 231 232 228 231 228 204 192 208 213 210 199 188 189 189 188 197 205 199 189 184 183 184 186 188 188 189 189 190 191 195 200 205 209 211 213 214 212 213 215 213 209 203 200 203 205 206 205 207 212 209 206 215 214 213 224 228 227 226 227 229 224 223 226 226 229 228 231 240 237 233 234 221 224 229 217 214 208 205 209 197 185
228 214 211 218 230 238 238 241 240 235 243 243 231 228 239 239 233 230 221 225 230 205 184 204 208 208 209 196 190 190 186 191 199 201 193 186 185 185 187 189 190 190 189 189 191 194 202 209 213 214 215 216 215 214 216 217 215 210 208 211 209 210 211 211 215 213 207 212 214 211 215 227 232 228 226 230 228 224 225 226 228 229 230 234 233 231 225 209 218 227 219 217 221 240 247 209 185
229 221 219 215 220 228 232 237 241 238 240 244 238 235 242 242 236 243 234 227 224 198 183 203 206 205 211 205 196 191 190 191 194 197 194 188 188 188 188 188 189 189 188 190 193 195 204 210 213 215 216 217 217 217 218 220 219 217 215 215 214 214 214 213 216 218 216 212 213 213 211 218 233 234 226 230 233 228 226 227 228 229 229 228 229 229 220 215 224 224 220 233 237 253 260 218 186
223 223 226 218 218 225 226 231 235 236 239 238 233 232 241 244 229 230 238 235 221 199 197 207 205 202 207 215 207 191 191 193 192 195 194 192 192 190 189 188 188 189 189 191 192 193 201 208 211 215 217 218 219 220 221 223 222 220 218 217 218 219 218 217 214 217 223 221 218 220 217 216 227 235 229 228 233 234 230 228 229 229 227 225 224 222 218 220 230 226 216 229 236 246 257 226 195
213 219 220 209 215 225 226 229 230 235 239 235 232 233 239 246 233 221 226 228 219 210 206 199 200 202 200 214 216 195 190 194 192 194 195 194 195 191 190 189 188 189 189 189 189 190 197 206 211 214 217 218 220 222 223 224 224 222 221 221 222 222 222 221 216 214 223 227 225 225 225 223 226 233 232 228 231 233 231 229 229 229 227 225 223 219 217 217 225 229 219 223 231 241 251 233 207
207 212 207 196 206 213 220 220 219 234 236 229 228 232 240 243 234 227 230 227 221 216 207 192 194 200 196 208 215 198 190 193 192 193 193 193 194 192 192 191 189 188 187 188 189 189 196 207 213 215 216 218 219 221 223 224 225 224 224 224 224 224 225 225 223 220 222 228 230 229 229 230 230 232 233 233 233 231 230 228 227 230 229 227 225 221 217 213 214 222 222 223 228 238 250 237 212
204 207 201 198 200 196 208 209 208 229 234 228 225 222 232 244 237 234 238 235 225 219 210 199 199 198 191 201 211 199 190 192 192 193 192 191 193 193 193 192 189 188 188 189 189 189 196 207 215 216 217 218 218 220 222 223 224 225 224 224 224 225 226 227 228 227 226 230 234 234 232 233 233 232 232 233 233 232 233 231 226 228 232 230 226 223 221 216 213 217 222 223 223 233 249 243 218
198 203 198 197 200 194 203 209 212 228 228 224 225 219 228 242 236 227 232 237 232 221 208 205 210 204 189 192 206 202 195 194 192 192 192 192 193 193 194 192 191 189 189 190 190 190 196 206 214 217 217 218 218 218 220 222 223 224 224 222 223 225 226 227 229 229 229 232 236 238 236 235 235 235 234 233 231 227 231 237 232 228 233 234 229 225 225 222 219 223 227 223 221 232 247 245 224
198 203 201 204 212 208 206 210 213 225 225 216 215 219 229 235 234 225 224 226 228 227 214 205 210 207 187 182 197 210 206 197 192 194 194 194 193 192 193 193 192 192 190 190 191 190 196 206 213 216 217 217 217 218 219 221 221 221 221 221 222 225 226 227 229 230 231 233 236 239 239 237 236 236 237 237 234 227 227 236 237 230 231 234 231 227 227 228 229 232 232 226 222 229 241 244 228
195 200 206 209 215 221 224 224 222 227 234 217 205 214 230 233 239 232 224 221 215 217 219 205 202 206 190 175 184 209 214 200 193 198 196 194 193 191 192 194 193 193 192 191 192 192 198 207 213 216 216 217 217 218 219 220 220 220 221 222 223 224 226 228 228 230 231 233 236 238 240 239 237 236 238 239 239 235 232 236 239 234 230 232 231 228 227 231 235 234 231 226 224 227 235 243 235
185 198 210 209 212 228 239 233 232 234 238 228 206 209 217 225 228 208 206 225 213 204 212 207 196 201 194 176 179 199 214 205 195 197 196 193 192 192 193 194 193 193 194 193 195 198 203 208 212 215 216 217 218 218 219 220 221 222 223 224 224 224 226 228 228 230 231 233 235 238 240 241 240 237 237 239 240 240 237 237 239 237 232 230 229 228 228 231 235 234 231 227 225 227 232 239 238
194 195 204 205 212 228 240 238 228 223 231 232 219 214 208 211 222 203 199 213 214 204 206 205 197 198 198 187 182 191 207 207 197 195 195 191 191 193 194 194 194 194 196 196 197 201 204 208 212 215 216 217 218 218 219 220 221 223 224 224 225 225 226 228 229 231 232 233 235 237 238 240 241 240 238 238 239 241 240 239 240 240 237 233 229 228 228 230 233 235 234 231 225 225 230 236 238
218 204 195 199 210 212 214 230 228 221 224 225 226 226 219 211 214 212 203 203 208 203 200 204 203 200 204 200 189 189 199 204 199 195 193 191 193 194 194 196 197 196 197 196 197 198 201 205 211 215 217 218 218 218 219 221 222 223 224 225 226 226 227 228 230 231 232 234 235 237 238 239 240 241 241 239 238 239 240 239 239 240 239 238 235 232 230 231 234 235 236 236 229 223 227 233 239
219 217 200 203 217 211 203 216 226 226 228 224 222 223 225 224 217 215 204 192 200 202 195 204 206 194 195 199 192 189 196 201 199 196 193 193 195 195 196 197 197 197 196 195 195 196 198 202 207 213 216 218 219 219 220 221 222 223 225 226 227 227 228 228 230 232 233 235 236 237 239 239 240 241 241 241 240 239 239 239 238 238 237 238 238 237 235 232 234 236 236 238 235 227 226 228 234
205 213 204 199 206 212 211 212 214 226 233 230 230 225 216 208 204 208 198 179 191 201 197 201 210 201 193 193 192 189 193 200 200 198 196 196 197 197 197 197 196 196 196 195 196 197 197 200 205 210 213 216 218 219 222 222 223 224 225 226 227 228 229 229 231 233 234 236 237 237 238 239 239 240 240 241 241 240 240 239 239 239 237 237 238 240 239 236 235 237 237 237 237 234 230 228 231
196 206 206 199 198 204 210 209 205 218 234 234 243 248 204 97 113 185 198 187 182 194 201 195 202 211 204 195 193 190 192 200 201 200 199 198 197 196 195 194 194 195 196 196 197 197 197 198 202 205 209 214 217 219 222 223 223 225 226 227 228 229 230 231 231 233 235 237 238 238 238 236 237 239 239 240 241 241 241 239 239 240 238 236 238 240 241 240 238 240 240 237 237 237 235 231 230